Location: Newark
(13.8117°N, 3.6025°W)
Time: 01:18:40
(UTC+00:00)

Explorer 11/Cluster Stage 4 - Pass Details

Date: 30 August 2019
Orbit: 467 x 1260 km, 28.8° (Epoch: 19 September)

Event Time Altitude Azimuth Distance (km) Brightness Sun altitude
Rises 15:33:06 0° 281° (WNW) 4,184 11.1 41.3°
Reaches altitude 10° 15:36:31 10° 272° (W) 3,174 10.9 40.5°
Maximum altitude 15:43:13 30° 215° (SW) 1,916 9.3 38.9°
Drops below altitude 10° 15:49:12 10° 156° (SSE) 2,799 9.3 37.4°
Sets 15:52:03 0° 145° (SE) 3,622 9.7 36.7°
